Regional Weather Roundup
Issued by NWS

Home | Current Version | Previous Version | Text Only | Print | Product List | Glossary Off
Versions: 1 2 3 4 5 6 7 8 9 10 11 12 13 14 15 16 17 18 19 20 21 22 23 24 25 26 27 28 29 30 31 32 33 34 35 36 37 38 39 40 41 42 43 44 45 46 47 48 49 50

928
ASUS43 KLOT 121903
RWRIL

ILLINOIS REGIONAL WEATHER ROUNDUP
NATIONAL WEATHER SERVICE CHICAGO/ROMEOVILLE IL
100 PM CST FRI FEB 12 2016

NOTE: "FAIR" INDICATES FEW OR NO CLOUDS BELOW 12,000 FEET WITH NO
SIGNIFICANT WEATHER AND/OR OBSTRUCTIONS TO VISIBILITY.

* THESE STATIONS ARE NOT UNDER NWS QUALITY CONTROL. THEY ALSO MAY NOT
  REPORT WEATHER SUCH AS PRECIPITATION OR FOG.

ILZ001-002-007-009-015-016-024-122000-
NORTHWEST ILLINOIS

CITY           SKY/WX    TMP DP  RH WIND       PRES   REMARKS
MOLINE         SUNNY     25   7  46 NW20G36   30.29S WCI  11
STERLING*      PTSUNNY   27   9  46 NW21G26   30.20F WCI  13
$$

ILZ003-004-008-010-011-017-018-122000-
NORTH CENTRAL ILLINOIS

CITY           SKY/WX    TMP DP  RH WIND       PRES   REMARKS
ROCKFORD       PTSUNNY   21   5  50 NW21G29   30.21F WCI   5
FREEPORT*      CLOUDY    19   7  59 W18G25    30.23F WCI   4
DE KALB*       PTSUNNY   22   8  56 NW18G31   30.17S WCI   7
$$

ILZ005-006-012>014-019>023-122000-
NORTHEAST ILLINOIS

CITY           SKY/WX    TMP DP  RH WIND       PRES   REMARKS
CHICAGO-OHARE  PTSUNNY   22   7  52 NW22      30.15S WCI   6
CHICAGO-MIDWAY MOSUNNY   24   7  48 W20G28    30.16S WCI  10
AURORA         MOSUNNY   24  10  55 NW24G31   30.17F WCI   8
WAUKEGAN       CLOUDY    20   5  52 NW15G25   30.13F WCI   6
DUPAGE AIRPORT PTSUNNY   22   7  52 W21G30    30.15F WCI   6
WHEELING       MOSUNNY   20   6  55 NW16G25   30.16F WCI   6
NORTHERLY ISL    N/A     22   8  55 NW17        N/A  WCI   8
$$

LMZ740>746-122000-
SOUTHERN LAKE MICHIGAN

STATION/POSITION SKY/WX   TEMP    WIND        PRES    VSBY  WAVE
                          AIR SEA DIR/SP/G                  HT/PER
                          (F)     (DEG/KT/KT) (MB)    (MI)  (FT/S)
HARRISON CRIB              21     320/ 23/ 26   N/A
BURNHAM HARBOR             21     320/ 14/ 21   N/A
CALUMET HARBOR             22     280/ 12/ 21 1020.1F
BURNS HARBOR               21     300/ 17/ 23 1020.7S
MICHIGAN CITY              21     270/ 24/ 27   N/A
$$

ILZ025>027-034>036-040-047-049-050-058-095>099-122000-
WEST-CENTRAL ILLINOIS

CITY           SKY/WX    TMP DP  RH WIND       PRES   REMARKS
QUINCY         CLOUDY    24  15  68 NW18G26   30.34S WCI  10
MACOMB*        PTSUNNY   25  16  70 NW16G25   30.33S WCI  12
$$

ILZ028>032-037-038-041>044-048-051>054-059>061-122000-
CENTRAL ILLINOIS

CITY           SKY/WX    TMP DP  RH WIND       PRES   REMARKS
BLOOMINGTON    FLURRIES  25  16  68 NW17      30.22S WCI  12
DECATUR        LGT SNOW  26  19  74 NW15G28   30.23F WCI  14
PEORIA         MOSUNNY   27  11  51 NW16G29   30.26F WCI  15
LINCOLN*       FLURRIES  27  19  71 NW12G23   30.25S WCI  17
SPRINGFIELD    CLOUDY    27  18  69 NW23G31   30.27F WCI  12
TAYLORVILLE    NOT AVBL
$$

ILZ033-039-045-046-055>057-062-063-122000-
EAST-CENTRAL ILLINOIS

CITY           SKY/WX    TMP DP  RH WIND       PRES   REMARKS
CHAMPAIGN      LGT SNOW  25  19  78 NW22      30.20S WCI  10
MATTOON        CLOUDY    25  19  78 NW21      30.21F WCI  11
$$

ILZ079-100>102-122000-
SOUTHWEST ILLINOIS

CITY           SKY/WX    TMP DP  RH WIND       PRES   REMARKS
BELLEVILLE     PTSUNNY   33  24  69 NW17      30.28S WCI  22
CAHOKIA*       CLOUDY    33  22  63 NW16      30.31S WCI  23
SPARTA*        CLOUDY    32  24  70 NW17      30.29S WCI  21
$$

ILZ064>066-069>071-074>076-080>082-084>086-088>090-092>094-122000-
SOUTH-CENTRAL ILLINOIS

CITY           SKY/WX    TMP DP  RH WIND       PRES   REMARKS
CARBONDALE     CLOUDY    34  24  67 NW12G18   30.27F WCI  25
MARION         CLOUDY    34  27  75 NW14      30.27F WCI  24
MT. VERNON     CLOUDY    30  21  69 NW6       30.27R WCI  24
CENTRALIA*     CLOUDY    32  25  76 NW13G21   30.26S WCI  22
SALEM*         CLOUDY    32  24  72 NW10      30.25F WCI  23
$$

ILZ067-068-072-073-078-083-087-091-122000-
SOUTHEAST ILLINOIS

CITY           SKY/WX    TMP DP  RH WIND       PRES   REMARKS
LAWRENCEVILLE  CLOUDY    29  21  72 NW17      30.22F WCI  17
HARRISBURG*    CLOUDY    33  27  79 NW13      30.26F WCI  23
$$

ABBREVIATIONS USED IN REMARKS
   TC - TEMPERATURE IN CELSIUS
  WCI - WIND CHILL INDEX
   HX - HEAT INDEX
  VSB - VISIBILITY
$$





USA.gov is the U.S. government's official web portal to all federal, state and local government web resources and services.